CZ-6A DEB

Satellite information

Favourite Embed

Satellite Type and Status

DEBRISIN ORBIT

Key statistics

Satellite CZ-6A DEB at a glance.

Uptime

1129

Days in orbit

Revolutions

≈ 14.6

Per day

Orbit

SSO

Sun Synchronous Orbit

Inclination

98.6

Latest

Satellite identification and parameters

Extended collection of information and parameters for CZ-6A DEB.

Object identification

Identified? True

Debris? True

Object name: CZ-6A DEB

International designator: 2022-151FM

Object number (NORAD): 54437

Object ID (CCSDS): 54437

Country: PEOPLES REPUBLIC OF CHINA (PRC)

Current information (Y/N): Y

RCS size: SMALL

Orbital parameters

Period: 98.633 minutes

Inclination: 98.6401 deg

SMA: 7071.461 km

Apoapsis: 761.194 km

Periapsis: 625.459 km

RAAN: 37.3452 deg

Eccentricy: 0.00959735

Argument of periapsis: 144.0784 deg

Mean anomaly: 216.6918 deg

Mean motion: 14.599534 rev/day

Mean motion (dot): 0.00010593 rev/day2

B* drag term: 0.002079424 1/REarth

Two-line elements (TLE)

Creation date: Dec. 14, 2025, 3:07 a.m.

Reference frame: TEME

Reference center: EARTH

Epoch: Dec. 13, 2025, 3:39 p.m. UTC

TLE line 0: 0 CZ-6A DEB

TLE line 1: 1 54437U 22151FM 25347.65250366 .00010593 00000-0 20794-2 0 9990

TLE line 2: 2 54437 98.6401 37.3452 0095973 144.0784 216.6918 14.59953400162853

Live tracking on map

Real-time ground track for satellite CZ-6A DEB.

In-orbit conjunctions

A list of the most updated potential collisions computed for object CZ-6A DEB.

Target Orbit TCA Probability of collision Miss distance Type
COSMOS 2251 DEB LEO 2025-09-24 09:56:44 0.0001654976 244.0 (m) DEBRIS
SL-8 DEB * LEO 2025-07-17 11:03:22 0.0003455376 103.0 (m) DEBRIS
CZ-6A DEB LEO 2024-11-12 05:11:15 0.000161598 991.0 (m) DEBRIS

Associated space launch

Chinese satellite reported for atmospheric/ocean/environmental/spatial parameter research purposes, details TBD.

CZ-6A DEB was lifted into orbit during the mission ‘Long March 6A | Yunhai 3’, on board a Long March 6A space rocket.

The launch took place on Nov. 11, 2022, 10:52 p.m. from Launch Complex 9A.

For more information about the launch, click the button.

Launch to space Long March 6A | Yunhai 3
Long March 6A | Yunhai 3

Agency: N/A

Status: Launch Successful

Launch date: Nov. 11, 2022, 10:52 p.m. UTC

Rocket: Long March 6A

Launch pad: Launch Complex 9A

Location: Taiyuan Satellite Launch Center, People's Republic of China

...

Latest news about this satellite

There are no fresh news available about this satellite. Check back as we update our databases every day.


Newsletter sign-up

Weekly statistics, charts and insights to help you stay on top of the space industry.